Estación Meteorológica Peña el Pijo (Robertgarden) [ 02/19/20 14:37:18 CET ]

Fecha Hora Presion(HPa) Temp (°C) Humedad % Rocio (°C) Viento ( m/s) Direccion Lluvia 1Hora(mm) Lluvia 24H(mm) LLuvia Total(mm)
2020-Jan-11 01:09:11 1015.300 - - - - NNE     39.88
2020-Jan-11 02:09:44 1015.600 - - - - NNE     39.88
2020-Jan-11 03:09:24 1016.100 - - - - NNE     39.88
2020-Jan-11 04:11:39 1015.600 - - - - NNE     39.88
2020-Jan-11 05:10:54 1015.700 - - - - NNE     39.88
2020-Jan-11 06:10:00 1016.000 - - - - NNE     39.88
2020-Jan-11 07:08:58 1016.000 - - - - NNE     39.88
2020-Jan-11 08:09:12 1016.300 - - - - NNE     39.88
2020-Jan-11 09:09:09 1016.600 - - - - NNE     39.88
2020-Jan-11 10:09:44 1017.200 - - - - NNE     39.88
2020-Jan-11 11:09:17 1017.800 - - - - NNE     39.88
2020-Jan-11 12:08:36 1017.700 - - -         39.88
2020-Jan-11 13:09:33 1016.700 - - - - NNE     39.88
2020-Jan-11 14:09:45 1015.900 - - - - NNE     39.88
2020-Jan-11 15:09:13 1015.800 - - - - NNE     39.88
2020-Jan-11 16:09:25 1015.600 - - - - NNE     39.88
2020-Jan-11 17:09:06 1015.900 - - - - NNE     39.88
2020-Jan-11 18:09:03 1016.500 - - - - NNE     39.88
2020-Jan-11 19:09:12 1017.100 - - - - NNE     39.88
2020-Jan-11 20:09:44 1017.600 - - - - NNE     39.88
2020-Jan-11 21:09:19 1017.900 - - - - NNE     39.88
2020-Jan-11 22:09:24 1017.900 - - - - NNE     39.88
2020-Jan-11 23:09:00 1018.200 - - - - NNE     39.88

Temperatura Máxima:    Temperatura Mínima:
Presión Máxima:1018.200 Hpa    Presión Mínima:1015.300 Hpa


Volver